Overview Statistics Trail Chart Weather Telemetry Raw packets
 

This is the latest recevied weather packets stored in our database for station/object KI5RAB. If no packets are shown the sender has not sent any weather packets the latest 10 day(s).

<< 33 34 35 36 37 38 39 >>
Time Temp. Humidity Pressure Rain* Wind** Luminosity Snow
1788439149 26.67° C 87% 1017.4 hPa 0 mm - 13 W/m² -
1788438844 26.11° C 87% 1017.3 hPa 0 mm - 8 W/m² -
1788438543 26.67° C 87% 1017.4 hPa 0 mm - 9 W/m² -
1788438238 26.67° C 87% 1017.3 hPa 0 mm - 7 W/m² -
1788437945 26.11° C 87% 1017.2 hPa 0 mm - 4 W/m² -
1788437632 26.67° C 87% 1017.2 hPa 0 mm - 3 W/m² -
1788437328 26.67° C 87% 1017.3 hPa 0 mm - 1 W/m² -
1788437021 26.67° C 87% 1017.2 hPa 0 mm - 1 W/m² -
1788436719 26.67° C 87% 1017.1 hPa 0 mm - 0 W/m² -
1788436414 26.67° C 87% 1017 hPa 0 mm - 0 W/m² -
1788436114 26.67° C 88% 1017 hPa 0 mm - 0 W/m² -
1788435810 26.67° C 88% 1016.8 hPa 0 mm - 0 W/m² -
1788435505 26.67° C 88% 1017 hPa 0 mm - 0 W/m² -
1788435200 26.67° C 87% 1016.8 hPa 0 mm - 0 W/m² -
1788434896 26.67° C 87% 1016.9 hPa 0 mm - 0 W/m² -
1788434592 26.67° C 87% 1016.9 hPa 0 mm - 0 W/m² -
1788434290 26.67° C 87% 1017 hPa 0 mm - 0 W/m² -
1788433985 26.67° C 87% 1017 hPa 0 mm - 0 W/m² -
1788433681 26.67° C 87% 1016.9 hPa 0 mm - 0 W/m² -
1788433377 26.67° C 87% 1017.1 hPa 0 mm - 0 W/m² -
1788433077 26.67° C 87% 1016.9 hPa 0 mm - 0 W/m² -
1788432772 26.67° C 86% 1016.9 hPa 0 mm - 0 W/m² -
1788432471 26.67° C 87% 1017.2 hPa 0 mm - 0 W/m² -
1788432167 26.67° C 87% 1017 hPa 0 mm - 0 W/m² -
1788431862 26.67° C 87% 1016.9 hPa 0 mm - 0 W/m² -

* Rain latest hour (hover to see other rain measurements)
** Current wind speed in m/s (hover to see current wind gust speed)